Hourly Weather Roundup
Issued by NWS Central Illinois

Home | Current Version | Previous Version | Text Only | Print | Product List | Glossary On
Versions: 1 2 3 4 5 6 7 8 9 10 11 12 13 14 15 16 17 18 19 20 21 22 23 24 25 26 27 28 29 30 31 32 33 34 35 36 37 38 39 40 41 42 43 44 45 46 47 48 49 50
000
NZUS43 KILX 040210
HWRILX

AREA WEATHER ROUNDUP
NATIONAL WEATHER SERVICE, LINCOLN IL
800 PM CST SAT DEC 03 2016


CITY           SKY/WX    TMP DP  RH WIND       PRES   REMARKS
BLOOMINGTON    CLOUDY    30  28  92 E7        30.30F WCI  23
CHAMPAIGN      CLOUDY    32  27  81 NE7       30.31S WCI  26
DANVILLE       CLOUDY    32  26  80 CALM      30.29S
DECATUR        CLOUDY    34  30  85 E12       30.29F WCI  25
EFFINGHAM      CLOUDY    38  33  81 NE7       30.30F WCI  33
FLORA          CLOUDY    40  33  74 E6        30.30S
GALESBURG      CLOUDY    33  28  83 E3        30.28R
JACKSONVILLE   CLOUDY    37  33  84 E8        30.27F WCI  31
LACON          CLOUDY    32  27  81 SE5       30.30S WCI  27
LAWRENCEVILLE  CLOUDY    38  30  73 NE7       30.31F WCI  33
LITCHFIELD     CLOUDY    36  33  90 E3        30.27F
$$


CITY           SKY/WX    TMP DP  RH WIND       PRES   REMARKS
LINCOLN        PTCLDY    34  32  91 E7        30.30S WCI  28
MACOMB         CLOUDY    35  31  86 E7        30.30S WCI  29
MATTOON        MOCLDY    34  28  79 E5        30.29F WCI  30
MT CARMEL AP   CLOUDY    38  32  78 NE5       30.31R WCI  35
OLNEY-NOBLE AP CLOUDY    37  32  81 E6        30.30F WCI  33
PARIS          CLOUDY    33  29  87 CALM      30.32S
PEORIA         CLOUDY    34  27  75 E6        30.30S WCI  29
PONTIAC        PTCLDY    32  30  93 S5        30.32R WCI  27
RANTOUL        PTCLDY    33  29  85 NE5       30.31S WCI  28
SPRINGFIELD    CLOUDY    37  31  78 E7        30.28F WCI  32
TAYLORVILLE    PTCLDY    35  31  86 E7        30.28F WCI  29
$$

...REGIONAL REPORTS...


CITY           SKY/WX    TMP DP  RH WIND       PRES   REMARKS
CHICAGO O`HARE CLOUDY    32  24  72 SW3       30.30R
KANKAKEE       CLOUDY    30  26  85 CALM      30.32S
MOLINE         PTCLDY    34  26  72 SE9       30.27F WCI  27
MOUNT STERLING CLOUDY    37  32  84 E8        30.25F WCI  30
MOUNT VERNON   NOT AVBL
PITTSFIELD     CLOUDY    39  34  82 E5        30.26F
QUINCY         CLOUDY    38  33  82 E8        30.24F WCI  32
ROCKFORD       CLOUDY    33  26  75 SE3       30.30F
$$


CITY           SKY/WX    TMP DP  RH WIND       PRES   REMARKS
BURLINGTON     CLOUDY    35  30  82 SE10      30.25F WCI  27
CEDAR RAPIDS   CLOUDY    35  30  82 SE6       30.23F WCI  30
DES MOINES     LGT RAIN  39  33  79 SE10      30.17F WCI  32
KIRKSVILLE     CLOUDY    39  33  79 SE12      30.19F WCI  32
OTTUMWA        CLOUDY    37  29  72 E12       30.20F WCI  29
ST LOUIS       CLOUDY    42  32  67 E9        30.25F
$$


CITY           SKY/WX    TMP DP  RH WIND       PRES   REMARKS
TERRE HAUTE    CLOUDY    33  28  81 N3        30.31F
EVANSVILLE     CLOUDY    40  31  70 NE3       30.30S
INDIANAPOLIS   CLOUDY    34  27  75 N5        30.29F WCI  30
LAFAYETTE      CLOUDY    33  27  78 CALM      30.31F
MADISON        CLOUDY    32  24  72 CALM      30.26F
MILWAUKEE      CLOUDY    32  22  66 SW5       30.29S WCI  27
$$






USA.gov is the U.S. government's official web portal to all federal, state and local government web resources and services.